Location: Votelez
(50.0000°N, 15.0000°E)
Time: 17:28:38
(UTC+01:00)

ISS - Visible Passes

Search period start: 14 February 2026 00:00
Search period end: 24 February 2026 00:00
Orbit: 413 x 428 km, 51.6° (Epoch: 13 February)

Date Brightness Start Highest point End Pass type
(mag) Time Alt. Az. Time Alt. Az. Time Alt. Az.
14 Feb -2.4 06:22:53 10° SW 06:26:01 39° SSE 06:29:10 10° E visible
15 Feb -1.9 05:36:21 11° SSW 05:39:04 27° SE 05:41:58 10° E visible
16 Feb -1.5 04:51:33 18° SSE 04:52:08 19° SE 04:54:37 10° E visible
16 Feb -3.6 06:25:15 10° WSW 06:28:35 75° SSE 06:31:56 10° ENE visible
17 Feb -0.5 04:06:35 11° ESE 04:06:35 11° ESE 04:06:54 10° ESE visible
17 Feb -3.3 05:39:35 22° SW 05:41:31 56° SSE 05:44:48 10° ENE visible
18 Feb -2.8 04:54:30 40° SSE 04:54:30 40° SSE 04:57:38 10° E visible
18 Feb -3.7 06:27:53 10° W 06:31:13 73° N 06:34:33 10° ENE visible
19 Feb -0.9 04:09:20 17° E 04:09:20 17° E 04:10:23 10° E visible
19 Feb -3.8 05:42:19 26° WSW 05:44:04 85° N 05:47:25 10° ENE visible
20 Feb -3.7 04:57:04 74° SE 04:57:04 74° SE 05:00:16 10° ENE visible
21 Feb -1.2 04:11:45 22° E 04:11:45 22° E 04:13:06 10° ENE visible
21 Feb -3.6 05:44:43 23° W 05:46:39 65° N 05:49:58 10° ENE visible
22 Feb -3.8 04:59:22 72° NNW 04:59:26 72° N 05:02:46 10° ENE visible
23 Feb -1.5 04:13:59 26° ENE 04:13:59 26° ENE 04:15:34 10° ENE visible
23 Feb -3.6 05:46:57 19° WNW 05:49:12 66° N 05:52:32 10° E visible
